Cloud_Cover
1 1 99 100 100 68 58 74 70 48 23 55 100 100 69 100 100 100 100 100 44 5 65 20 9 36 43 4 4 28 100 100 10 34 21 45 92 21 5 90 92 100 100
7 5 46 33 56 66 81 88 6 11 5 5 5 9 81 58 55 71 100 100 100 17 100 100 100 96 78 9 5 5 10 68 100 100 100 100 97 99 95 65 9 52 98
0 3 61 100 100 100 87 74 72 5 1 4 5 5 11 100 100 100 100 100 100 100 87 92 100 99 100 100 5 5 5 0 0 3 57 100 95 83 99 9 7 5 26
0 2 39 39 100 99 99 30 10 5 50 80 49 5 83 91 100 100 100 100 100 100 100 100 100 86 80 100 87 57 80 5 4 4 6 4 100 65 69 37 32 35 20
3 0 2 22 99 100 100 77 99 25 100 15 17 5 4 16 100 100 99 100 100 100 100 100 100 100 100 100 100 100 100 100 100 92 34 65 86 100 100 3 3 10 46
60 0 0 67 100 100 100 100 90 100 100 73 83 6 0 12 0 70 26 91 100 100 100 100 100 100 100 100 100 100 100 100 100 100 100 98 17 26 100 14 0 0 0
72 46 0 77 100 100 100 100 100 99 100 100 100 99 3 0 100 67 1 3 2 23 100 100 100 100 100 58 3 24 30 4 68 95 100 100 99 60 96 100 100 85 0
7 0 39 0 41 100 100 100 100 100 100 100 100 100 43 0 16 0 0 6 0 1 24 66 51 1 0 0 0 64 4 10 0 0 98 100 100 100 100 100 100 96 100
0 0 0 0 5 37 29 13 99 100 100 100 100 100 64 20 0 0 0 37 31 27 64 70 64 0 0 0 1 0 0 0 16 4 0 7 56 92 100 100 100 100 100
0 0 0 0 0 5 5 9 13 100 100 100 89 11 4 4 3 6 0 0 15 18 96 17 5 59 54 100 79 99 2 4 15 52 0 0 0 2 26 89 84 100 56
0 0 0 0 3 6 33 66 100 100 100 98 96 8 0 5 1 6 15 0 0 3 53 1 83 25 97 100 91 2 6 92 100 92 93 100 27 2 6 1 5 28 100
0 0 0 0 0 5 9 95 100 100 100 100 74 5 2 4 6 34 44 2 0 0 90 78 100 50 4 22 33 81 90 39 34 69 24 42 22 8 6 73 57 11 6
0 5 0 0 0 6 9 20 86 99 100 100 58 8 5 0 3 6 6 0 0 20 0 100 87 43 0 3 5 10 90 100 60 79 96 54 5 0 0 8 0 16 22
0 0 0 0 0 0 5 1 5 8 98 84 84 13 9 4 11 3 0 0 0 0 0 4 90 0 0 2 100 100 93 100 72 38 100 100 57 0 0 4 18 60 99
0 0 0 0 0 0 4 0 2 32 93 84 100 87 6 15 27 0 68 0 0 0 4 19 0 0 0 0 2 23 78 56 64 69 10 35 43 46 90 89 47 7 0
0 0 0 0 0 0 0 0 7 2 20 100 92 86 5 5 75 5 3 0 0 0 0 0 0 0 0 0 0 52 94 55 100 75 88 92 28 62 100 100 100 100 63
0 0 0 0 0 0 0 0 0 0 94 98 99 80 62 5 8 5 5 0 0 0 0 0 0 0 0 5 9 90 91 36 71 65 100 100 100 86 91 92 100 99 49
0 0 0 0 0 0 0 26 0 35 100 100 100 48 11 5 5 3 3 5 0 0 0 0 0 0 5 8 48 70 75 100 100 92 100 67 78 100 100 90 91 100 100
0 0 0 0 0 0 1 0 6 74 98 94 100 100 66 8 5 5 5 5 3 0 0 0 0 0 0 8 62 22 99 100 89 100 72 53 92 97 100 100 61 91 95
0 0 0 0 0 0 5 0 0 99 16 47 97 100 11 6 6 5 62 5 5 0 0 0 0 0 0 1 40 39 98 99 100 100 40 93 99 98 100 90 80 100 100
0 0 0 0 5 0 64 5 0 43 25 19 26 100 8 2 42 19 58 8 31 5 0 0 0 0 0 0 0 96 100 100 97 100 45 73 90 100 100 100 100 100 100
0 0 0 0 3 5 50 5 0 66 0 4 57 100 6 0 5 41 100 100 92 4 5 0 0 0 0 0 0 34 33 91 39 4 55 100 100 100 100 100 100 100 97
0 0 0 0 0 0 0 0 78 21 0 0 32 23 68 4 1 83 89 100 20 4 3 5 0 0 0 0 0 0 96 100 78 99 100 100 100 100 100 100 100 100 100
0 0 0 0 0 4 2 8 94 0 0 0 4 6 99 5 2 4 84 99 75 5 5 36 5 0 0 0 0 0 25 85 96 69 98 100 100 100 100 100 100 100 100
0 0 0 0 2 25 5 26 38 0 0 0 5 16 51 5 5 5 5 92 19 5 9 3 8 2 0 0 0 0 0 2 28 56 93 100 100 100 100 100 100 100 100
0 0 0 12 44 5 78 8 35 0 0 0 0 24 5 5 5 5 5 6 89 42 40 5 9 5 0 0 0 0 1 41 100 100 93 93 100 100 100 100 100 100 100